Location: Buckeye Ditch
(40.9104°N, 122.9517°W)
Time: 01:58:47
(UTC+00:00)

SR - Pass Details

Date: 20 May 2025
Orbit: 570 x 855 km, 66.7° (Epoch: 11 June)

Event Time Altitude Azimuth Distance (km) Brightness Sun altitude
Exits shadow 09:47:06 16° 281° (W) 2,071 ? -24.8°
Maximum altitude 09:49:45 22° 315° (NW) 1,791 ? -24.6°
Drops below altitude 10° 09:54:09 10° 5° (N) 2,475 ? -24.3°
Sets 09:57:11 0° 21° (NNE) 3,387 ? -24.0°
